Weather History for Monett, MO

Change the Weather History Date:

Monday, July 15, 2013

  Actual Average (KJLN) Record (KJLN)
Temperature  
Mean Temperature 76 °F 80 °F  
Max Temperature 87 °F 91 °F 105 °F (1954)
Min Temperature 66 °F 70 °F 53 °F (1967)
Degree Days  
Heating Degree Days 0 0  
Month to date heating degree days 0  
Since 1 June heating degree days 5  
Since 1 July heating degree days 0  
Cooling Degree Days 12 15  
Month to date cooling degree days 221  
Year to date cooling degree days 719  
Since 1 June cooling degree days 539  
Growing Degree Days 26 (Base 50)    
Moisture  
Dew Point 64 °F    
Average Humidity 67    
Maximum Humidity 88    
Minimum Humidity 40    
Precipitation  
Precipitation 0.00 in 0.12 in 1.20 in (1989)
Month to date precipitation 2.06  
Year to date precipitation 25.87  
Snow  
Snow 0.00 in - - ()
Month to date snowfall  
Since 1 June snowfall  
Since 1 July snowfall  
Snow Depth -    
Sea Level Pressure  
Sea Level Pressure 30.14 in    
Wind  
Wind Speed 7 mph (ESE)    
Max Wind Speed 16 mph    
Max Gust Speed 20 mph    
Visibility 10 miles    
Events      
T = Trace of Precipitation, MM = Missing Value Source: NWS Daily Summary

Daily Weather History Graph

Daily Weather History Graph

Search for Another Location

Airport:

Trip Planner

Search our weather history database for the weather conditions in past years. The results will help you decide how hot, cold, wet, or windy it might be!

Date:

Astronomy

Jul. 15, 2013 Rise Set
Actual Time 6:08 AM CDT 8:35 PM CDT
Civil Twilight 5:38 AM CDT 9:04 PM CDT
Nautical Twilight 5:01 AM CDT 9:41 PM CDT
Astronomical Twilight 4:20 AM CDT 10:22 PM CDT
Moon 1:16 PM CDT (7/15) No Moon Set
Length of Visible Light 15h 26m
Length of Day
14h 26m
Waxing Crescent, 45% of the Moon is Illuminated
Jul 15
Waxing Crescent
Jul 15
First Quarter
Jul 22
Full
Jul 29
Last Quarter
Aug 6
New

Hourly Weather History & Observations

Time (CDT) Temp. Heat Index Dew Point Humidity Pressure Visibility Wind Dir Wind Speed Gust Speed Precip Events Conditions
12:15 AM 69.8 °F - 57.2 °F 64% 30.10 in 10.0 mi East 4.6 mph - N/A   Clear
12:35 AM 71.6 °F - 59.0 °F 64% 30.10 in 10.0 mi East 5.8 mph - N/A   Clear
12:55 AM 69.8 °F - 59.0 °F 68% 30.10 in 10.0 mi East 8.1 mph - N/A   Clear
1:15 AM 71.6 °F - 60.8 °F 69% 30.10 in 10.0 mi ESE 3.5 mph - N/A   Clear
1:35 AM 69.8 °F - 59.0 °F 68% 30.10 in 10.0 mi East 5.8 mph - N/A   Clear
1:55 AM 69.8 °F - 60.8 °F 73% 30.10 in 10.0 mi East 5.8 mph - N/A   Clear
2:15 AM 69.8 °F - 60.8 °F 73% 30.10 in 10.0 mi East 6.9 mph - N/A   Clear
2:35 AM 69.8 °F - 60.8 °F 73% 30.10 in 10.0 mi East 6.9 mph - N/A   Clear
2:55 AM 69.8 °F - 60.8 °F 73% 30.10 in 10.0 mi East 5.8 mph - N/A   Clear
3:15 AM 68.0 °F - 60.8 °F 78% 30.10 in 10.0 mi East 5.8 mph - N/A   Clear
3:35 AM 68.0 °F - 60.8 °F 78% 30.10 in 10.0 mi ENE 6.9 mph - N/A   Clear
3:55 AM 68.0 °F - 60.8 °F 78% 30.11 in 10.0 mi East 6.9 mph - N/A   Clear
4:15 AM 68.0 °F - 60.8 °F 78% 30.12 in 10.0 mi East 6.9 mph - N/A   Clear
4:35 AM 68.0 °F - 62.6 °F 83% 30.12 in 10.0 mi East 6.9 mph - N/A   Clear
4:55 AM 68.0 °F - 62.6 °F 83% 30.12 in 10.0 mi East 6.9 mph - N/A   Clear
5:15 AM 68.0 °F - 62.6 °F 83% 30.12 in 10.0 mi East 6.9 mph - N/A   Clear
5:35 AM 66.2 °F - 62.6 °F 88% 30.12 in 10.0 mi East 6.9 mph - N/A   Clear
5:55 AM 68.0 °F - 62.6 °F 83% 30.12 in 10.0 mi ENE 10.4 mph - N/A   Clear
6:15 AM 68.0 °F - 64.4 °F 88% 30.13 in 10.0 mi East 8.1 mph - N/A   Clear
6:35 AM 68.0 °F - 64.4 °F 88% 30.14 in 10.0 mi East 8.1 mph - N/A   Scattered Clouds
6:55 AM 68.0 °F - 64.4 °F 88% 30.15 in 10.0 mi East 8.1 mph - N/A   Overcast
7:15 AM 68.0 °F - 64.4 °F 88% 30.15 in 10.0 mi East 6.9 mph - N/A   Overcast
7:35 AM 69.8 °F - 64.4 °F 83% 30.15 in 10.0 mi ESE 9.2 mph - N/A   Overcast
7:55 AM 69.8 °F - 64.4 °F 83% 30.16 in 10.0 mi ESE 11.5 mph 17.3 mph N/A   Mostly Cloudy
8:15 AM 69.8 °F - 66.2 °F 88% 30.17 in 10.0 mi ESE 12.7 mph 16.1 mph N/A   Mostly Cloudy
8:35 AM 71.6 °F - 66.2 °F 83% 30.18 in 10.0 mi ESE 12.7 mph - N/A   Mostly Cloudy
8:55 AM 71.6 °F - 66.2 °F 83% 30.18 in 10.0 mi ESE 13.8 mph - N/A   Mostly Cloudy
9:15 AM 73.4 °F - 68.0 °F 83% 30.18 in 10.0 mi SE 12.7 mph - N/A   Overcast
9:35 AM 77.0 °F - 68.0 °F 74% 30.18 in 10.0 mi ESE 12.7 mph 18.4 mph N/A   Scattered Clouds
9:55 AM 77.0 °F - 68.0 °F 74% 30.18 in 10.0 mi SE 13.8 mph 19.6 mph N/A   Scattered Clouds
10:15 AM 77.0 °F - 68.0 °F 74% 30.18 in 10.0 mi ESE 16.1 mph - N/A   Mostly Cloudy
10:35 AM 78.8 °F - 68.0 °F 69% 30.19 in 10.0 mi ESE 11.5 mph 18.4 mph N/A   Scattered Clouds
10:55 AM 78.8 °F - 66.2 °F 65% 30.19 in 10.0 mi ESE 11.5 mph - N/A   Scattered Clouds
11:15 AM 80.6 °F 82.7 °F 66.2 °F 61% 30.18 in 10.0 mi SE 9.2 mph - N/A   Clear
11:35 AM 80.6 °F 82.7 °F 66.2 °F 61% 30.18 in 10.0 mi ESE 11.5 mph 16.1 mph N/A   Clear
11:55 AM 80.6 °F 82.3 °F 64.4 °F 58% 30.18 in 10.0 mi SE 6.9 mph - N/A   Clear
12:15 PM 82.4 °F 83.9 °F 64.4 °F 54% 30.17 in 10.0 mi South 6.9 mph - N/A   Clear
12:35 PM 82.4 °F 83.9 °F 64.4 °F 54% 30.17 in 10.0 mi SSE 9.2 mph - N/A   Clear
12:55 PM 84.2 °F 85.6 °F 64.4 °F 51% 30.16 in 10.0 mi SSE 6.9 mph 18.4 mph N/A   Scattered Clouds
1:15 PM 86.0 °F 87.3 °F 64.4 °F 48% 30.16 in 10.0 mi SE 8.1 mph - N/A   Scattered Clouds
1:35 PM 84.2 °F 85.0 °F 62.6 °F 48% 30.15 in 10.0 mi SE 8.1 mph - N/A   Mostly Cloudy
1:55 PM 86.0 °F 86.6 °F 62.6 °F 45% 30.15 in 10.0 mi SSE 8.1 mph - N/A   Mostly Cloudy
2:15 PM 87.8 °F 88.5 °F 62.6 °F 43% 30.14 in 10.0 mi East 9.2 mph - N/A   Mostly Cloudy
2:35 PM 86.0 °F 86.6 °F 62.6 °F 45% 30.14 in 10.0 mi SE 5.8 mph - N/A   Mostly Cloudy
2:55 PM 86.0 °F 86.6 °F 62.6 °F 45% 30.14 in 10.0 mi ESE 5.8 mph - N/A   Mostly Cloudy
3:15 PM 87.8 °F 88.5 °F 62.6 °F 43% 30.13 in 10.0 mi East 8.1 mph - N/A   Mostly Cloudy
3:35 PM 86.0 °F 86.6 °F 62.6 °F 45% 30.13 in 10.0 mi ESE 10.4 mph - N/A   Mostly Cloudy
3:55 PM 86.0 °F 86.6 °F 62.6 °F 45% 30.12 in 10.0 mi East 8.1 mph - N/A   Mostly Cloudy
4:15 PM 86.0 °F 86.6 °F 62.6 °F 45% 30.12 in 10.0 mi ESE 8.1 mph - N/A   Mostly Cloudy
4:35 PM 87.8 °F 88.5 °F 62.6 °F 43% 30.12 in 10.0 mi ESE 9.2 mph - N/A   Scattered Clouds
4:55 PM 87.8 °F 87.6 °F 60.8 °F 40% 30.11 in 10.0 mi ESE 4.6 mph - N/A   Scattered Clouds
5:15 PM 87.8 °F 88.5 °F 62.6 °F 43% 30.11 in 10.0 mi ESE 8.1 mph - N/A   Scattered Clouds
5:35 PM 86.0 °F 86.6 °F 62.6 °F 45% 30.11 in 10.0 mi East 8.1 mph - N/A   Overcast
5:55 PM 86.0 °F 86.6 °F 62.6 °F 45% 30.10 in 10.0 mi East 6.9 mph - N/A   Overcast
6:15 PM 84.2 °F 85.6 °F 64.4 °F 51% 30.10 in 10.0 mi East 10.4 mph - N/A   Scattered Clouds
6:35 PM 82.4 °F 83.9 °F 64.4 °F 54% 30.11 in 10.0 mi East 8.1 mph - N/A   Clear
6:55 PM 82.4 °F 83.9 °F 64.4 °F 54% 30.12 in 10.0 mi East 6.9 mph - N/A   Clear
7:15 PM 82.4 °F 83.9 °F 64.4 °F 54% 30.12 in 10.0 mi North 3.5 mph - N/A   Scattered Clouds
10:15 PM 71.6 °F - 64.4 °F 78% 30.19 in 10.0 mi Calm Calm - N/A   Scattered Clouds
10:35 PM 71.6 °F - 64.4 °F 78% 30.20 in 10.0 mi Calm Calm - N/A   Scattered Clouds
10:55 PM 71.6 °F - 66.2 °F 83% 30.19 in 10.0 mi ESE 4.6 mph - N/A   Mostly Cloudy
11:15 PM 69.8 °F - 66.2 °F 88% 30.19 in 10.0 mi East 3.5 mph - N/A   Scattered Clouds
11:35 PM 69.8 °F - 66.2 °F 88% 30.20 in 10.0 mi ESE 3.5 mph - N/A   Mostly Cloudy
11:55 PM 69.8 °F - 66.2 °F 88% 30.21 in 10.0 mi SE 3.5 mph - N/A   Scattered Clouds